NOAA 16 DEB, 42413

Orbit data source: Space-Track

NOAA 16 DEB, 42413 is space debris in SSO originally from a launch on Thu, 21 Sep 2000 UTC launched from the Air Force Western Test Range (AFWTR). Debris objects in space refer to the collection of defunct objects orbiting the Earth. Examples of debris include non-operational satellites, rocket bodies, and fragments generated from explosions, collisions, or faulty payload assembly.

Loading next visibility...
Identifier
42413, 2000-055TH
Orbit
SSO
Country
Flag of USUS
Related business
Manufacturer
Unknown
Mission
Spacecraft
Bus & Motor
Unknown
Mass
Unknown
Launch date (UTC)
2000-09-21 (25 years ago)
Launch vehicle
Unknown
Launch site
Air Force Western Test Range (AFWTR)
Object type
Payload
Rocket body
Debris
Shape & HBR
Unknown shape, 0.1 m
Radar Cross Section
Small (<0.1 m²)

Expand to show TLE details & history
Last TLE update: 2 days ago

TLE from 2 days ago
0 NOAA 16 DEB
1 42413U 00055TH  25294.86686591  .00011892  00000-0  34759-2 0  9996
2 42413  98.9264  87.8748 0022430 114.8245 245.5280 14.44010969501046
Epoch: 2025-10-21T20:48Z
TLE epoch observation values (Epoch: 2025-10-21T20:48:17.214Z)
Latitude
-0.00004°
Longitude
105.25441°
Altitude
754.867 km
Speed
7.474 km/s
True Right ascension
05h 51m 29s
True Declination
0° 00' 00"
Sunlit
Object was in full shadow at epoch
Visualization orbit readout
Latitude
Unknown
Longitude
Unknown
Altitude
Unknown
Speed
Unknown
Apparent Right ascension
Unknown
Apparent Declination
Unknown
Sunlit
N/A
Visualization observer readout
Local Sidereal Time
08:05:44
Azimuth
Unknown
Elevation
Unknown
Doppler factor
Unknown
Orbital elements
Apogee altitude
758.385 km
Perigee altitude
726.443 km
Semi-major axis
7,120.551 km
Eccentricity
0.00224
Inclination
98.9264°
RAAN
87.8748°
Arg. of periapsis
114.8245°
True anomaly
245.29433°
Mean anomaly
245.528°
Eccentric anomaly
245.41114°
Mean motion
3.61221 °/min
Orbital period
99.66 mins
BSTAR
0.0034759
Loading maneuver chart data...
Computing Atmospheric mass density...

Documentation

Showing up to 5 results
|